Date,TemperatureHighF,TemperatureAvgF,TemperatureLowF,DewpointHighF,DewpointAvgF,DewpointLowF,HumidityHigh,HumidityAvg,HumidityLow,PressureMaxIn,PressureMinIn,WindSpeedMaxMPH,WindSpeedAvgMPH,GustSpeedMaxMPH,PrecipitationSumIn
2013-9-1,85.9,79.2,72.1,70.4,68.1,65.3,84,70,52,29.89,29.79,16,2,16,0.00
2013-9-2,82.3,75.6,72.1,69.0,67.5,65.6,85,76,62,29.92,29.81,18,2,18,0.02
2013-9-3,89.5,79.3,72.4,68.8,66.0,58.1,85,66,36,29.92,29.81,15,2,15,0.00
2013-9-4,94.1,78.2,66.7,66.8,62.7,49.4,83,63,23,30.04,29.90,11,0,11,0.01
2013-9-5,88.6,77.7,68.1,67.2,63.9,58.1,83,65,36,30.07,29.99,9,0,9,0.00
2013-9-6,85.3,75.7,67.2,66.4,62.0,56.9,84,65,42,30.11,30.00,17,2,17,0.01
2013-9-7,89.5,76.1,65.4,65.8,61.5,56.2,84,64,33,30.08,29.95,7,0,8,0.00
2013-9-8,89.5,77.1,65.4,67.1,63.1,57.5,84,65,35,29.97,29.88,13,1,13,0.01
2013-9-9,89.0,78.3,69.1,67.5,63.7,59.0,82,63,37,30.05,29.93,16,1,16,0.00
2013-9-10,89.0,78.1,70.1,67.3,64.9,60.8,82,66,40,30.16,30.05,13,1,13,0.00
2013-9-11,92.8,78.6,67.7,66.8,62.3,48.0,84,62,23,30.17,30.04,12,0,12,0.00
2013-9-12,90.5,77.0,68.6,68.2,64.6,61.2,83,67,38,30.04,29.85,16,2,16,0.00
2013-9-13,85.9,75.5,62.1,67.6,58.6,45.8,83,59,28,29.85,29.76,20,3,20,0.00
2013-9-14,80.2,67.6,54.4,57.9,51.7,46.4,83,60,32,30.02,29.84,20,2,20,0.00
2013-9-15,83.6,72.3,63.4,65.5,59.9,55.8,80,66,44,30.12,30.02,18,2,18,0.00
2013-9-16,87.8,75.8,66.7,64.7,60.0,49.2,83,62,27,30.09,30.00,14,1,14,0.00
2013-9-17,76.0,71.6,67.5,61.7,56.2,52.5,80,59,47,30.20,30.05,21,5,21,0.00
2013-9-18,76.4,70.1,64.8,58.9,55.2,52.2,79,60,48,30.20,30.09,15,2,15,0.00
2013-9-19,86.5,72.3,60.9,63.6,58.1,53.8,83,64,34,30.15,30.02,11,0,11,0.00
2013-9-20,88.0,74.7,62.7,63.8,59.3,53.3,84,62,31,30.04,29.86,15,1,15,0.00
2013-9-21,72.9,69.7,64.9,67.3,63.1,59.2,87,80,68,29.88,29.65,18,2,18,1.11
2013-9-22,82.6,69.0,57.2,59.5,55.6,47.5,85,66,31,29.83,29.71,12,1,12,0.01
2013-9-23,79.3,68.9,59.8,58.7,55.9,50.5,84,65,38,29.97,29.83,17,2,17,0.00
2013-9-24,70.9,67.6,65.1,60.9,58.5,55.6,83,73,64,29.99,29.85,14,2,14,0.11
2013-9-25,66.4,65.2,64.0,61.3,59.7,56.7,85,82,77,29.86,29.79,16,2,16,1.14
2013-9-26,81.9,69.7,60.8,61.4,58.0,54.9,85,68,43,29.97,29.83,11,1,11,0.00
2013-9-27,79.2,69.0,57.3,61.8,54.6,49.5,85,62,39,30.09,29.96,17,2,17,0.00
2013-9-28,74.6,66.9,59.0,55.2,52.3,47.6,80,61,39,30.18,30.07,18,2,18,0.00
2013-9-29,74.0,65.0,55.3,55.6,51.1,47.0,83,62,39,30.13,30.00,15,1,15,0.00
2013-9-30,79.5,65.8,56.0,57.7,52.5,46.9,86,66,32,30.06,29.95,15,1,15,0.00